This demonstration page uses our WeatherBlox Daily Observations layout. Learn more.

Left ArrowRight Arrow

Hourly Observations for May 25, 2020

Temp ( °F °C ) Dew Point ( °F °C ) Humidity (%) Winds ( mph kmh ) Pressure ( in mb ) Visibility ( mi km ) Precip ( " mm )
12:53 am 00:53 Clear 67 19.4 47 8.3 49 49 ESE 10 17 29.61 1003 10 16 0.00 0.00
1:53 am 01:53 Clear 66 18.9 47 8.3 50 50 ESE 16 26 29.63 1003 10 16 0.00 0.00
2:53 am 02:53 Clear 67 19.4 48 8.9 51 51 ESE 18 30 29.64 1004 10 16 0.00 0.00
3:53 am 03:53 Clear 64 17.8 53 11.7 68 68 ESE 16 26 29.62 1003 10 16 0.00 0.00
4:53 am 04:53 Clear 62 16.7 54 12.2 75 75 ESE 15 24 29.64 1004 10 16 0.00 0.00
5:53 am 05:53 Clear 60 15.6 55 12.8 84 84 SE 15 24 29.63 1004 10 16 0.00 0.00
6:26 am 06:26 Partly Cloudy 59 15 55 12.8 87 87 E 10 17 29.72 1006 10 16 0.00 0.00
6:37 am 06:37 Mostly Cloudy 59 15 55 12.8 87 87 E 8 13 29.72 1006 10 16 0.00 0.00
6:53 am 06:53 Cloudy 59 15 55 12.8 87 87 E 8 13 29.66 1005 10 16 0.00 0.00
7:53 am 07:53 Cloudy 61 16.1 55 12.8 81 81 NE 9 15 29.68 1005 10 16 0.00 0.00
8:14 am 08:14 Cloudy 62 16.7 56 13.3 80 80 NE 12 19 29.74 1007 10 16 0.00 0.00
8:40 am 08:40 Cloudy 63 17.2 55 12.8 76 76 NE 10 17 29.74 1007 10 16 0.00 0.00
8:53 am 08:53 Cloudy 64 17.8 54 12.2 70 70 NE 7 11 29.70 1006 10 16 0.00 0.00
9:53 am 09:53 Mostly Cloudy 69 20.6 54 12.2 59 59 NNE 13 20 29.72 1006 10 16 0.00 0.00
10:23 am 10:23 Cloudy 70 21.1 54 12.2 57 57 NE 10 17 29.74 1007 10 16 0.00 0.00
10:53 am 10:53 Cloudy 72 22.2 53 11.7 52 52 NNE 17 28 29.75 1007 10 16 0.00 0.00
11:53 am 11:53 Cloudy 74 23.3 53 11.7 48 48 NNE 18 30 29.77 1008 10 16 0.00 0.00
12:53 pm 12:53 Cloudy 74 23.3 53 11.7 48 48 NE 16 26 29.79 1009 10 16 0.00 0.00
1:53 pm 13:53 Mostly Cloudy 72 22.2 53 11.7 52 52 NNE 25 41 29.81 1010 10 16 0.00 0.00
2:53 pm 14:53 Sunny 75 23.9 53 11.7 46 46 NE 21 33 29.80 1009 10 16 0.00 0.00
3:53 pm 15:53 Mostly Cloudy 76 24.4 52 11.1 43 43 NE 16 26 29.80 1009 10 16 0.00 0.00
4:53 pm 16:53 Partly Cloudy 78 25.6 51 10.6 39 39 NE 17 28 29.79 1009 10 16 0.00 0.00
5:53 pm 17:53 Mostly Sunny 78 25.6 51 10.6 39 39 NNE 14 22 29.79 1009 10 16 0.00 0.00
6:53 pm 18:53 Mostly Sunny 76 24.4 50 10 40 40 NNE 9 15 29.80 1009 10 16 0.00 0.00
7:53 pm 19:53 Sunny 76 24.4 50 10 40 40 NE 9 15 29.81 1010 10 16 0.00 0.00
8:53 pm 20:53 Mostly Clear 73 22.8 50 10 44 44 NE 9 15 29.84 1010 10 16 0.00 0.00
9:53 pm 21:53 Clear 70 21.1 51 10.6 51 51 NE 13 20 29.85 1011 10 16 0.00 0.00
10:53 pm 22:53 Clear 68 20 52 11.1 57 57 NE 8 13 29.89 1012 10 16 0.00 0.00
11:53 pm 23:53 Clear 66 18.9 51 10.6 59 59 NNE 12 19 29.92 1013 10 16 0.00 0.00

Powered by AerisWeather